EZY46PJ EGNS-EGCC

Flight info

Callsign EZY46PJ
Flight time 0h 30m
Altitude 15000
Route TIMIS Q39 DANDI DCT PENIL
Aircraft A320/M-SDE1E2E3FGHIRWXY/LB1

Departure

Time 2026-04-18 10:59
Airport Isle of Man Airport (EGNS)

Arrival

Time 2026-04-18 11:29
Airport Manchester Airport (EGCC)
Time Latitude Longitude Altitude Speed Heading
2026-04-18 10:08 54.08603 -4.63216 40 ft 0 kts 225°
2026-04-18 10:42 54.08612 -4.63201 40 ft 4 kts 223°
2026-04-18 10:42 54.08633 -4.63174 39 ft 4 kts 195°
2026-04-18 10:43 54.08646 -4.63172 39 ft 4 kts 148°
2026-04-18 10:43 54.08671 -4.63208 38 ft 4 kts 131°
2026-04-18 10:43 54.08678 -4.63221 36 ft 0 kts 133°
2026-04-18 10:46 54.08671 -4.63209 38 ft 4 kts 133°
2026-04-18 10:47 54.08653 -4.63175 39 ft 6 kts 133°
2026-04-18 10:47 54.08623 -4.63103 40 ft 9 kts 103°
2026-04-18 10:47 54.08633 -4.63005 40 ft 8 kts 81°
2026-04-18 10:47 54.08630 -4.62924 41 ft 6 kts 96°
2026-04-18 10:48 54.08625 -4.62837 41 ft 4 kts 96°
2026-04-18 10:48 54.08622 -4.62796 40 ft 3 kts 96°
2026-04-18 10:48 54.08620 -4.62774 42 ft 3 kts 97°
2026-04-18 10:48 54.08617 -4.62730 42 ft 4 kts 96°
2026-04-18 10:49 54.08614 -4.62677 43 ft 5 kts 96°
2026-04-18 10:49 54.08609 -4.62605 43 ft 6 kts 96°
2026-04-18 10:49 54.08603 -4.62513 44 ft 10 kts 96°
2026-04-18 10:49 54.08594 -4.62374 45 ft 11 kts 96°
2026-04-18 10:50 54.08584 -4.62248 43 ft 11 kts 97°
2026-04-18 10:50 54.08574 -4.62104 39 ft 14 kts 97°
2026-04-18 10:50 54.08552 -4.61932 33 ft 15 kts 97°
2026-04-18 10:50 54.08571 -4.61745 30 ft 16 kts 77°
2026-04-18 10:51 54.08588 -4.61609 28 ft 11 kts 78°
2026-04-18 10:51 54.08605 -4.61480 29 ft 12 kts 78°
2026-04-18 10:51 54.08622 -4.61343 24 ft 12 kts 78°
2026-04-18 10:51 54.08640 -4.61202 23 ft 12 kts 78°
2026-04-18 10:52 54.08656 -4.61067 21 ft 12 kts 78°
2026-04-18 10:52 54.08670 -4.60929 19 ft 12 kts 88°
2026-04-18 10:52 54.08635 -4.60809 17 ft 12 kts 148°
2026-04-18 10:52 54.08556 -4.60762 15 ft 13 kts 178°
2026-04-18 10:53 54.08524 -4.60833 16 ft 0 kts 256°
2026-04-18 10:53 54.08523 -4.60837 16 ft 0 kts 256°
2026-04-18 10:53 54.08523 -4.60842 16 ft 1 kts 256°
2026-04-18 10:53 54.08522 -4.60844 16 ft 0 kts 256°
2026-04-18 10:54 54.08522 -4.60846 16 ft 0 kts 256°
2026-04-18 10:54 54.08522 -4.60848 16 ft 0 kts 256°
2026-04-18 10:58 54.08522 -4.60850 16 ft 1 kts 256°
2026-04-18 10:58 54.08488 -4.61113 20 ft 58 kts 258°
2026-04-18 10:58 54.08356 -4.62157 32 ft 120 kts 258°
2026-04-18 10:58 54.08164 -4.63704 439 ft 134 kts 261°
2026-04-18 10:59 54.07972 -4.65265 1143 ft 136 kts 263°
2026-04-18 10:59 54.07759 -4.66998 1458 ft 163 kts 262°
2026-04-18 10:59 54.07427 -4.68986 1817 ft 190 kts 246°
2026-04-18 10:59 54.06394 -4.70660 2158 ft 229 kts 207°
2026-04-18 11:00 54.04722 -4.70871 2650 ft 261 kts 167°
2026-04-18 11:00 54.03024 -4.69469 3320 ft 277 kts 146°
2026-04-18 11:00 54.01476 -4.67504 4324 ft 279 kts 142°
2026-04-18 11:00 53.99953 -4.65496 5233 ft 284 kts 143°
2026-04-18 11:01 53.98345 -4.63512 6130 ft 287 kts 146°
2026-04-18 11:01 53.96670 -4.61640 7047 ft 289 kts 148°
2026-04-18 11:01 53.95078 -4.59520 7924 ft 293 kts 136°
2026-04-18 11:02 53.92607 -4.53875 9623 ft 302 kts 125°
2026-04-18 11:02 53.91412 -4.50922 10428 ft 307 kts 126°
2026-04-18 11:02 53.90164 -4.47868 10679 ft 331 kts 125°
2026-04-18 11:02 53.88802 -4.44542 11178 ft 344 kts 126°
2026-04-18 11:03 53.87446 -4.41225 11856 ft 350 kts 126°
2026-04-18 11:03 53.86041 -4.37785 12687 ft 352 kts 126°
2026-04-18 11:03 53.84663 -4.34403 13424 ft 356 kts 126°
2026-04-18 11:03 53.83244 -4.30927 14149 ft 360 kts 126°
2026-04-18 11:04 53.81818 -4.27427 14802 ft 364 kts 127°
2026-04-18 11:04 53.80372 -4.23889 15140 ft 366 kts 127°
2026-04-18 11:04 53.78932 -4.20371 15214 ft 358 kts 127°
2026-04-18 11:04 53.77527 -4.16955 15227 ft 350 kts 127°
2026-04-18 11:05 53.76136 -4.13582 15228 ft 349 kts 127°
2026-04-18 11:05 53.74765 -4.10265 15231 ft 349 kts 127°
2026-04-18 11:05 53.73377 -4.06903 15231 ft 349 kts 127°
2026-04-18 11:05 53.71986 -4.03541 15230 ft 349 kts 127°
2026-04-18 11:06 53.70592 -4.00175 15231 ft 350 kts 127°
2026-04-18 11:06 53.69205 -3.96816 15231 ft 349 kts 126°
2026-04-18 11:06 53.68020 -3.93229 15228 ft 351 kts 114°
2026-04-18 11:06 53.67114 -3.89419 15210 ft 350 kts 113°
2026-04-18 11:07 53.66212 -3.85612 15213 ft 350 kts 113°
2026-04-18 11:07 53.65306 -3.81808 15215 ft 350 kts 113°
2026-04-18 11:07 53.64394 -3.78006 15219 ft 350 kts 113°
2026-04-18 11:07 53.63490 -3.74263 15223 ft 350 kts 113°
2026-04-18 11:08 53.62576 -3.70474 15225 ft 350 kts 113°
2026-04-18 11:08 53.61615 -3.66706 15225 ft 349 kts 119°
2026-04-18 11:08 53.60293 -3.63231 15232 ft 359 kts 127°
2026-04-18 11:08 53.58844 -3.59780 15215 ft 358 kts 127°
2026-04-18 11:09 53.57424 -3.56406 14998 ft 349 kts 127°
2026-04-18 11:09 53.56041 -3.53124 14869 ft 338 kts 127°
2026-04-18 11:09 53.54685 -3.49912 14157 ft 338 kts 127°
2026-04-18 11:09 53.53320 -3.46681 13345 ft 338 kts 127°
2026-04-18 11:10 53.52010 -3.43580 13125 ft 324 kts 127°
2026-04-18 11:10 53.50711 -3.40515 12853 ft 321 kts 127°
2026-04-18 11:10 53.49415 -3.37465 12591 ft 320 kts 127°
2026-04-18 11:10 53.48126 -3.34429 12334 ft 319 kts 127°
2026-04-18 11:11 53.46839 -3.31399 12037 ft 317 kts 127°
2026-04-18 11:11 53.45563 -3.28399 11760 ft 315 kts 127°
2026-04-18 11:11 53.44289 -3.25409 11492 ft 314 kts 127°
2026-04-18 11:11 53.43019 -3.22426 11218 ft 314 kts 127°
2026-04-18 11:12 53.41756 -3.19454 10949 ft 312 kts 125°
2026-04-18 11:12 53.40798 -3.16208 10678 ft 312 kts 106°
2026-04-18 11:12 53.40489 -3.12637 10394 ft 308 kts 86°
2026-04-18 11:12 53.40845 -3.09161 10147 ft 302 kts 67°
2026-04-18 11:13 53.41753 -3.06084 9872 ft 297 kts 55°
2026-04-18 11:13 53.42802 -3.03098 9597 ft 297 kts 56°
2026-04-18 11:13 53.43840 -3.00108 9356 ft 296 kts 56°
2026-04-18 11:13 53.44913 -2.97172 9083 ft 294 kts 52°
2026-04-18 11:14 53.46093 -2.94387 8812 ft 292 kts 50°
2026-04-18 11:14 53.47281 -2.91641 8558 ft 291 kts 50°
2026-04-18 11:14 53.48474 -2.88886 8286 ft 290 kts 50°
2026-04-18 11:14 53.49644 -2.86192 8023 ft 289 kts 50°
2026-04-18 11:15 53.50826 -2.83474 7751 ft 288 kts 50°
2026-04-18 11:15 53.52005 -2.80753 7509 ft 287 kts 50°
2026-04-18 11:15 53.53180 -2.78046 7256 ft 286 kts 50°
2026-04-18 11:15 53.54351 -2.75347 7002 ft 286 kts 50°
2026-04-18 11:16 53.55519 -2.72656 6757 ft 284 kts 50°
2026-04-18 11:16 53.56682 -2.69982 6505 ft 284 kts 51°
2026-04-18 11:16 53.57850 -2.67296 6231 ft 283 kts 50°
2026-04-18 11:16 53.59010 -2.64634 5966 ft 282 kts 50°
2026-04-18 11:17 53.60176 -2.61980 5702 ft 281 kts 50°
2026-04-18 11:17 53.61317 -2.59372 5447 ft 280 kts 50°
2026-04-18 11:17 53.62475 -2.56747 5196 ft 279 kts 50°
2026-04-18 11:17 53.63641 -2.54136 5022 ft 278 kts 50°
2026-04-18 11:18 53.64808 -2.51518 4982 ft 280 kts 52°
2026-04-18 11:18 53.65633 -2.48549 4931 ft 281 kts 74°
2026-04-18 11:18 53.66022 -2.45323 4427 ft 280 kts 79°
2026-04-18 11:18 53.66337 -2.42079 3974 ft 280 kts 80°
2026-04-18 11:19 53.66636 -2.38855 3596 ft 277 kts 80°
2026-04-18 11:19 53.66929 -2.35692 3473 ft 277 kts 80°
2026-04-18 11:19 53.67225 -2.32466 3486 ft 278 kts 79°
2026-04-18 11:19 53.67511 -2.29250 3490 ft 278 kts 80°
2026-04-18 11:20 53.67802 -2.26014 3482 ft 279 kts 81°
2026-04-18 11:20 53.67765 -2.22773 3482 ft 279 kts 105°
2026-04-18 11:20 53.66912 -2.19875 3485 ft 276 kts 127°
2026-04-18 11:20 53.65764 -2.17294 3490 ft 275 kts 130°
2026-04-18 11:21 53.64579 -2.14743 3485 ft 276 kts 130°
2026-04-18 11:21 53.63395 -2.12212 3485 ft 276 kts 130°
2026-04-18 11:21 53.62222 -2.09691 3486 ft 277 kts 130°
2026-04-18 11:21 53.61034 -2.07145 3488 ft 277 kts 133°
2026-04-18 11:22 53.59591 -2.05063 3480 ft 272 kts 155°
2026-04-18 11:22 53.57894 -2.03660 3481 ft 272 kts 160°
2026-04-18 11:22 53.56176 -2.02342 3478 ft 271 kts 160°
2026-04-18 11:22 53.54453 -2.01044 3474 ft 269 kts 160°
2026-04-18 11:23 53.52748 -2.00026 3476 ft 249 kts 174°
2026-04-18 11:23 53.51104 -1.99833 3480 ft 226 kts 190°
2026-04-18 11:23 53.49653 -2.00298 3480 ft 206 kts 206°
2026-04-18 11:23 53.48414 -2.01243 3484 ft 186 kts 218°
2026-04-18 11:24 53.47428 -2.02511 3513 ft 174 kts 231°
2026-04-18 11:24 53.46655 -2.04015 3485 ft 169 kts 236°
2026-04-18 11:24 53.45915 -2.05562 3352 ft 170 kts 236°
2026-04-18 11:24 53.45175 -2.07109 3143 ft 172 kts 236°
2026-04-18 11:25 53.44425 -2.08676 2916 ft 173 kts 235°
2026-04-18 11:25 53.43677 -2.10234 2701 ft 169 kts 236°
2026-04-18 11:25 53.42947 -2.11757 2477 ft 166 kts 235°
2026-04-18 11:25 53.42242 -2.13223 2238 ft 157 kts 236°
2026-04-18 11:26 53.41571 -2.14621 2046 ft 152 kts 236°
2026-04-18 11:26 53.40920 -2.15976 1837 ft 151 kts 236°
2026-04-18 11:26 53.40265 -2.17340 1621 ft 150 kts 237°
2026-04-18 11:26 53.39624 -2.18671 1413 ft 143 kts 236°
2026-04-18 11:27 53.39011 -2.19944 1215 ft 140 kts 235°
2026-04-18 11:27 53.38407 -2.21200 1020 ft 137 kts 234°
2026-04-18 11:27 53.37811 -2.22437 840 ft 136 kts 234°
2026-04-18 11:27 53.37216 -2.23669 644 ft 136 kts 234°
2026-04-18 11:28 53.36628 -2.24891 454 ft 136 kts 233°
2026-04-18 11:28 53.36042 -2.26106 286 ft 134 kts 233°
2026-04-18 11:28 53.35517 -2.27201 250 ft 107 kts 231°
2026-04-18 11:28 53.35155 -2.27950 235 ft 58 kts 231°
2026-04-18 11:29 53.34986 -2.28353 232 ft 37 kts 246°
2026-04-18 11:29 53.34948 -2.28593 231 ft 12 kts 261°
2026-04-18 11:29 53.34961 -2.28732 229 ft 14 kts 315°
2026-04-18 11:29 53.35042 -2.28691 228 ft 13 kts 49°
2026-04-18 11:30 53.35092 -2.28588 230 ft 11 kts 51°
2026-04-18 11:30 53.35143 -2.28483 227 ft 12 kts 51°
2026-04-18 11:30 53.35188 -2.28391 229 ft 8 kts 51°
2026-04-18 11:30 53.35221 -2.28323 232 ft 11 kts 49°
2026-04-18 11:31 53.35308 -2.28210 233 ft 17 kts 22°
2026-04-18 11:31 53.35410 -2.28163 236 ft 13 kts
2026-04-18 11:31 53.35508 -2.28110 234 ft 19 kts 29°
2026-04-18 11:31 53.35595 -2.27963 239 ft 15 kts 51°
2026-04-18 11:32 53.35665 -2.27888 243 ft 9 kts
2026-04-18 11:32 53.35709 -2.27880 245 ft 4 kts
2026-04-18 11:32 53.35733 -2.27876 246 ft 7 kts
2026-04-18 11:32 53.35797 -2.27866 250 ft 8 kts
2026-04-18 11:33 53.35843 -2.27858 252 ft 10 kts
2026-04-18 11:33 53.35963 -2.27869 255 ft 24 kts 335°
2026-04-18 11:33 53.36007 -2.27913 255 ft 7 kts 343°
2026-04-18 11:33 53.36084 -2.27874 255 ft 10 kts 331°
2026-04-18 11:34 53.36160 -2.27978 255 ft 20 kts 321°
2026-04-18 11:34 53.36280 -2.28176 255 ft 26 kts 315°
2026-04-18 11:34 53.36400 -2.28398 255 ft 26 kts 297°
2026-04-18 11:34 53.36505 -2.28634 255 ft 26 kts 315°
2026-04-18 11:35 53.36628 -2.28783 255 ft 12 kts
2026-04-18 11:35 53.36660 -2.28727 255 ft 5 kts 47°
2026-04-18 11:35 53.36684 -2.28689 255 ft 4 kts 41°
2026-04-18 11:35 53.36742 -2.28598 255 ft 15 kts 49°
2026-04-18 11:36 53.36735 -2.28546 255 ft 1 kts 128°
2026-04-18 11:36 53.36748 -2.28499 255 ft 10 kts 60°
2026-04-18 11:36 53.36739 -2.28463 255 ft 2 kts 130°
2026-04-18 11:36 53.36735 -2.28454 255 ft 1 kts 131°
2026-04-18 11:37 53.36734 -2.28452 255 ft 0 kts 131°